SL-16 DEB, 22812

Orbit data source: Space-Track

SL-16 DEB, 22812 is space debris in LEO originally from a launch on Fri, 25 Dec 1992 UTC launched from the Tyuratam Missile And Space Complex (TTMTR). Debris objects in space refer to the collection of defunct objects orbiting the Earth. Examples of debris include non-operational satellites, rocket bodies, and fragments generated from explosions, collisions, or faulty payload assembly.

Loading next visibility...
Identifier
22812, 1992-093JB
Orbit
LEO
Country
Flag of CISCIS
Related business
Manufacturer
Unknown
Mission
Spacecraft
Bus & Motor
Unknown
Mass
Unknown
Launch date (UTC)
1992-12-25 (33 years ago)
Launch vehicle
Unknown
Launch site
Tyuratam Missile And Space Complex (TTMTR)
Object type
Payload
Rocket body
Debris
Shape & HBR
Unknown shape, 0.1 m
Radar Cross Section
Small (<0.1 m²)

Expand to show TLE details & history
Last TLE update: 16 hours ago

TLE from 16 hours ago
0 SL-16 DEB
1 22812U 92093JB  26036.89377317  .00003397  00000-0  18710-2 0  9991
2 22812  70.6839 217.8086 0128004 234.4015 124.5121 14.08231277664520
Epoch: 2026-02-05T21:27Z
TLE epoch observation values (Epoch: 2026-02-05T21:27:02.001Z)
Latitude
-0.00012°
Longitude
120.01076°
Altitude
921.14 km
Speed
7.364 km/s
True Right ascension
14h 31m 14s
True Declination
0° 00' 00"
Sunlit
Object was in daylight at epoch
Visualization orbit readout
Latitude
Unknown
Longitude
Unknown
Altitude
Unknown
Speed
Unknown
Apparent Right ascension
Unknown
Apparent Declination
Unknown
Sunlit
N/A
Visualization observer readout
Local Sidereal Time
15:53:16
Azimuth
Unknown
Elevation
Unknown
Doppler factor
Unknown
Orbital elements
Apogee altitude
956.087 km
Perigee altitude
770.698 km
Semi-major axis
7,241.53 km
Eccentricity
0.0128
Inclination
70.6839°
RAAN
217.8086°
Arg. of periapsis
234.4015°
True anomaly
125.70982°
Mean anomaly
124.5121°
Eccentric anomaly
125.11205°
Mean motion
3.52207 °/min
Orbital period
102.21 mins
BSTAR
0.001871
Loading maneuver chart data...
Computing Atmospheric mass density...

Documentation

Showing up to 5 results
|